Wetterdaten: Woche 27.11.17 - 03.12.17 (KW48)
Datum Zeit Temperatur Luftfeuchte Luftdruck Niederschlag Windrichtung Sonnenschein Solar Wind
27.11.2017 00:00 -0,0 C 95 % 1027,1 hPa 0,0 l/m W-SW 0,00 h 0 W/m 8,3 km/h (2 Bft)
27.11.2017 01:00 -0,0 C 95 % 1027,2 hPa 0,0 l/m W-SW 0,00 h 0 W/m 6,3 km/h (2 Bft)
27.11.2017 02:00 -0,1 C 94 % 1027,5 hPa 0,0 l/m W 0,00 h 0 W/m 11,3 km/h (2 Bft)
27.11.2017 03:00 -0,6 C 94 % 1027,3 hPa 0,0 l/m W-SW 0,00 h 0 W/m 10,7 km/h (2 Bft)
27.11.2017 04:00 -0,6 C 94 % 1027,2 hPa 0,0 l/m W-SW 0,00 h 0 W/m 14,6 km/h (3 Bft)
27.11.2017 05:00 -0,3 C 94 % 1026,9 hPa 0,0 l/m W-SW 0,00 h 0 W/m 11,2 km/h (2 Bft)
27.11.2017 06:00 -0,2 C 94 % 1026,8 hPa 0,0 l/m W-SW 0,00 h 0 W/m 14,0 km/h (3 Bft)
27.11.2017 07:00 -0,0 C 94 % 1026,7 hPa 0,0 l/m W-SW 0,00 h 6 W/m 13,8 km/h (3 Bft)
27.11.2017 08:00 0,2 C 94 % 1026,8 hPa 0,0 l/m SW 0,00 h 24 W/m 12,6 km/h (3 Bft)
27.11.2017 09:00 0,6 C 93 % 1026,7 hPa 0,0 l/m W-SW 0,00 h 65 W/m 16,0 km/h (3 Bft)
27.11.2017 10:00 1,1 C 92 % 1026,3 hPa 0,0 l/m W-SW 0,00 h 109 W/m 17,8 km/h (3 Bft)
27.11.2017 11:00 1,8 C 88 % 1025,6 hPa 0,0 l/m SW 0,67 h 266 W/m 26,0 km/h (4 Bft)
27.11.2017 12:00 3,0 C 83 % 1024,7 hPa 0,0 l/m W-SW 1,00 h 354 W/m 27,5 km/h (4 Bft)
27.11.2017 13:00 3,4 C 79 % 1023,7 hPa 0,0 l/m W-SW 0,75 h 227 W/m 28,4 km/h (4 Bft)
27.11.2017 14:00 3,4 C 74 % 1022,8 hPa 0,0 l/m W-SW 0,42 h 131 W/m 27,2 km/h (4 Bft)
27.11.2017 15:00 3,3 C 73 % 1022,2 hPa 0,0 l/m W-SW 0,33 h 68 W/m 22,1 km/h (4 Bft)
27.11.2017 16:00 3,1 C 74 % 1021,8 hPa 0,0 l/m W-SW 0,00 h 10 W/m 17,8 km/h (3 Bft)
27.11.2017 17:00 2,8 C 76 % 1021,4 hPa 0,0 l/m SW 0,00 h 0 W/m 18,2 km/h (3 Bft)
27.11.2017 18:00 3,1 C 76 % 1020,8 hPa 0,0 l/m W-SW 0,00 h 0 W/m 19,7 km/h (3 Bft)
27.11.2017 19:00 3,3 C 75 % 1019,9 hPa 0,0 l/m SW 0,00 h 0 W/m 25,2 km/h (4 Bft)
27.11.2017 20:00 3,3 C 77 % 1019,0 hPa 0,0 l/m W-SW 0,00 h 0 W/m 25,5 km/h (4 Bft)
27.11.2017 21:00 3,3 C 78 % 1018,4 hPa 0,0 l/m W-SW 0,00 h 0 W/m 26,8 km/h (4 Bft)
27.11.2017 22:00 3,3 C 78 % 1017,5 hPa 0,0 l/m W-SW 0,00 h 0 W/m 21,8 km/h (4 Bft)
27.11.2017 23:00 2,8 C 83 % 1017,0 hPa 0,0 l/m SW 0,00 h 0 W/m 21,8 km/h (4 Bft)
28.11.2017 00:00 2,1 C 88 % 1016,0 hPa 0,0 l/m SW 0,00 h 0 W/m 21,6 km/h (4 Bft)
28.11.2017 01:00 2,1 C 89 % 1014,9 hPa 0,0 l/m W-SW 0,00 h 0 W/m 18,8 km/h (3 Bft)
28.11.2017 02:00 2,7 C 84 % 1014,0 hPa 0,0 l/m W-SW 0,00 h 0 W/m 21,7 km/h (4 Bft)
28.11.2017 03:00 3,0 C 81 % 1013,1 hPa 0,0 l/m W-SW 0,00 h 0 W/m 19,4 km/h (3 Bft)
28.11.2017 04:00 3,2 C 79 % 1012,2 hPa 0,0 l/m W-SW 0,00 h 0 W/m 23,3 km/h (4 Bft)
28.11.2017 05:00 2,9 C 79 % 1011,6 hPa 0,0 l/m W-SW 0,00 h 0 W/m 24,3 km/h (4 Bft)
28.11.2017 06:00 2,5 C 81 % 1011,3 hPa 0,0 l/m SW 0,00 h 0 W/m 20,4 km/h (4 Bft)
28.11.2017 07:00 1,9 C 83 % 1010,8 hPa 0,0 l/m SW 0,00 h 5 W/m 20,8 km/h (4 Bft)
28.11.2017 08:00 2,1 C 83 % 1010,9 hPa 0,0 l/m SW 0,00 h 29 W/m 22,2 km/h (4 Bft)
28.11.2017 09:00 2,8 C 82 % 1010,9 hPa 0,0 l/m W-SW 0,00 h 64 W/m 20,1 km/h (4 Bft)
28.11.2017 10:00 2,7 C 87 % 1010,7 hPa 0,2 l/m W-SW 0,00 h 94 W/m 22,5 km/h (4 Bft)
28.11.2017 11:00 2,3 C 92 % 1010,3 hPa 1,0 l/m W-SW 0,00 h 82 W/m 22,9 km/h (4 Bft)
28.11.2017 12:00 2,4 C 94 % 1009,7 hPa 0,6 l/m W-SW 0,00 h 88 W/m 24,4 km/h (4 Bft)
28.11.2017 13:00 2,8 C 95 % 1008,9 hPa 0,4 l/m W-SW 0,00 h 96 W/m 21,4 km/h (4 Bft)
28.11.2017 14:00 3,2 C 95 % 1008,2 hPa 0,4 l/m W-SW 0,00 h 53 W/m 18,8 km/h (3 Bft)
28.11.2017 15:00 3,1 C 95 % 1007,9 hPa 0,2 l/m SW 0,00 h 30 W/m 14,8 km/h (3 Bft)
28.11.2017 16:00 2,8 C 95 % 1007,5 hPa 0,0 l/m SW 0,08 h 12 W/m 13,3 km/h (3 Bft)
28.11.2017 17:00 2,7 C 95 % 1007,0 hPa 0,2 l/m W-SW 0,00 h 0 W/m 14,9 km/h (3 Bft)
28.11.2017 18:00 2,7 C 95 % 1006,5 hPa 0,0 l/m W-SW 0,00 h 0 W/m 15,5 km/h (3 Bft)
28.11.2017 19:00 2,7 C 94 % 1006,3 hPa 0,0 l/m W 0,00 h 0 W/m 19,8 km/h (4 Bft)
28.11.2017 20:00 2,5 C 94 % 1006,5 hPa 0,0 l/m SW 0,00 h 0 W/m 15,8 km/h (3 Bft)
28.11.2017 21:00 2,3 C 94 % 1006,4 hPa 0,0 l/m W-SW 0,00 h 0 W/m 18,2 km/h (3 Bft)
28.11.2017 22:00 2,2 C 95 % 1006,4 hPa 0,4 l/m W-SW 0,00 h 0 W/m 15,6 km/h (3 Bft)
28.11.2017 23:00 1,9 C 95 % 1006,3 hPa 0,0 l/m SW 0,00 h 0 W/m 10,1 km/h (2 Bft)
29.11.2017 00:00 1,8 C 96 % 1006,1 hPa 0,2 l/m W-SW 0,00 h 0 W/m 4,2 km/h (1 Bft)
29.11.2017 01:00 1,8 C 96 % 1005,8 hPa 0,0 l/m N 0,00 h 0 W/m 1,2 km/h (1 Bft)
29.11.2017 02:00 1,9 C 96 % 1005,5 hPa 0,0 l/m N 0,00 h 0 W/m 0,0 km/h (0 Bft)
29.11.2017 03:00 1,9 C 96 % 1005,2 hPa 0,0 l/m N 0,00 h 0 W/m 0,9 km/h (0 Bft)
29.11.2017 04:00 1,9 C 96 % 1004,9 hPa 0,0 l/m W-SW 0,00 h 0 W/m 2,9 km/h (1 Bft)
29.11.2017 05:00 1,9 C 97 % 1004,9 hPa 0,0 l/m W-SW 0,00 h 0 W/m 2,9 km/h (1 Bft)
29.11.2017 06:00 1,6 C 97 % 1004,9 hPa 0,2 l/m W-SW 0,00 h 0 W/m 1,6 km/h (1 Bft)
29.11.2017 07:00 1,5 C 97 % 1004,9 hPa 0,0 l/m N 0,00 h 0 W/m 0,4 km/h (0 Bft)
29.11.2017 08:00 1,6 C 97 % 1005,0 hPa 0,0 l/m N 0,00 h 15 W/m 0,3 km/h (0 Bft)
29.11.2017 09:00 1,8 C 97 % 1005,2 hPa 0,0 l/m W-SW 0,00 h 44 W/m 0,7 km/h (0 Bft)
29.11.2017 10:00 2,2 C 95 % 1005,5 hPa 0,0 l/m W-SW 0,00 h 71 W/m 5,8 km/h (1 Bft)
29.11.2017 11:00 2,3 C 92 % 1005,1 hPa 0,0 l/m W-NW 0,00 h 112 W/m 3,2 km/h (1 Bft)
29.11.2017 12:00 2,7 C 90 % 1004,7 hPa 0,0 l/m N 0,00 h 148 W/m 0,0 km/h (0 Bft)
29.11.2017 13:00 3,0 C 89 % 1004,4 hPa 0,0 l/m N 0,00 h 108 W/m 0,8 km/h (0 Bft)
29.11.2017 14:00 3,1 C 88 % 1004,3 hPa 0,0 l/m W-NW 0,00 h 89 W/m 3,6 km/h (1 Bft)
29.11.2017 15:00 2,7 C 91 % 1004,4 hPa 0,0 l/m W-NW 0,00 h 35 W/m 3,7 km/h (1 Bft)
29.11.2017 16:00 2,4 C 92 % 1004,4 hPa 0,0 l/m N 0,00 h 12 W/m 0,0 km/h (0 Bft)
29.11.2017 17:00 2,0 C 93 % 1004,6 hPa 0,2 l/m NW 0,00 h 0 W/m 4,0 km/h (1 Bft)
29.11.2017 18:00 1,1 C 93 % 1004,7 hPa 0,0 l/m N 0,00 h 0 W/m 1,3 km/h (1 Bft)
29.11.2017 19:00 0,8 C 94 % 1005,0 hPa 0,2 l/m N 0,00 h 0 W/m 0,0 km/h (0 Bft)
29.11.2017 20:00 0,6 C 94 % 1005,0 hPa 0,2 l/m N 0,00 h 0 W/m 0,0 km/h (0 Bft)
29.11.2017 21:00 0,5 C 95 % 1005,4 hPa 0,0 l/m N 0,00 h 0 W/m 0,0 km/h (0 Bft)
29.11.2017 22:00 0,3 C 95 % 1005,5 hPa 0,0 l/m N 0,00 h 0 W/m 0,0 km/h (0 Bft)
29.11.2017 23:00 0,3 C 96 % 1005,6 hPa 0,0 l/m N 0,00 h 0 W/m 0,0 km/h (0 Bft)
30.11.2017 00:00 0,1 C 96 % 1005,3 hPa 0,0 l/m NW 0,00 h 0 W/m 0,7 km/h (0 Bft)
30.11.2017 01:00 -0,4 C 95 % 1005,1 hPa 0,0 l/m NW 0,00 h 0 W/m 4,8 km/h (1 Bft)
30.11.2017 02:00 -0,8 C 95 % 1005,2 hPa 0,0 l/m W 0,00 h 0 W/m 6,4 km/h (2 Bft)
30.11.2017 03:00 -0,6 C 95 % 1004,9 hPa 0,0 l/m SW 0,00 h 0 W/m 11,6 km/h (2 Bft)
30.11.2017 04:00 -0,4 C 94 % 1004,8 hPa 0,0 l/m SW 0,00 h 0 W/m 12,9 km/h (3 Bft)
30.11.2017 05:00 -0,5 C 94 % 1004,9 hPa 0,0 l/m W-SW 0,00 h 0 W/m 15,7 km/h (3 Bft)
30.11.2017 06:00 -0,4 C 94 % 1005,0 hPa 0,0 l/m SW 0,00 h 0 W/m 15,6 km/h (3 Bft)
30.11.2017 07:00 -0,3 C 94 % 1005,0 hPa 0,0 l/m W-SW 0,00 h 5 W/m 16,0 km/h (3 Bft)
30.11.2017 08:00 -0,3 C 94 % 1005,1 hPa 0,0 l/m W-SW 0,00 h 28 W/m 16,0 km/h (3 Bft)
30.11.2017 09:00 -0,1 C 93 % 1005,5 hPa 0,0 l/m W-SW 0,08 h 80 W/m 16,8 km/h (3 Bft)
30.11.2017 10:00 0,5 C 91 % 1005,7 hPa 0,0 l/m SW 0,17 h 139 W/m 19,6 km/h (3 Bft)
30.11.2017 11:00 0,6 C 90 % 1005,5 hPa 0,0 l/m W-SW 0,00 h 84 W/m 20,8 km/h (4 Bft)
30.11.2017 12:00 0,7 C 91 % 1005,4 hPa 0,0 l/m W-SW 0,00 h 125 W/m 19,6 km/h (3 Bft)
30.11.2017 13:00 1,0 C 91 % 1005,3 hPa 0,0 l/m W-SW 0,00 h 117 W/m 17,2 km/h (3 Bft)
30.11.2017 14:00 0,8 C 91 % 1005,0 hPa 0,0 l/m W-SW 0,00 h 59 W/m 17,2 km/h (3 Bft)
30.11.2017 15:00 0,9 C 90 % 1005,4 hPa 0,0 l/m W-SW 0,00 h 35 W/m 18,5 km/h (3 Bft)
30.11.2017 16:00 0,5 C 91 % 1005,8 hPa 0,0 l/m SW 0,08 h 11 W/m 12,4 km/h (3 Bft)
30.11.2017 17:00 0,0 C 93 % 1006,0 hPa 0,0 l/m SW 0,00 h 0 W/m 10,1 km/h (2 Bft)
30.11.2017 18:00 -0,2 C 94 % 1006,3 hPa 0,0 l/m SW 0,00 h 0 W/m 4,6 km/h (1 Bft)
30.11.2017 19:00 0,1 C 95 % 1006,4 hPa 0,0 l/m SW 0,00 h 0 W/m 8,6 km/h (2 Bft)
30.11.2017 20:00 0,0 C 95 % 1006,5 hPa 0,2 l/m SW 0,00 h 0 W/m 11,6 km/h (2 Bft)
30.11.2017 21:00 -0,1 C 96 % 1006,6 hPa 0,0 l/m SW 0,00 h 0 W/m 12,8 km/h (3 Bft)
30.11.2017 22:00 -0,2 C 96 % 1006,9 hPa 0,0 l/m SW 0,00 h 0 W/m 12,1 km/h (2 Bft)
30.11.2017 23:00 -0,4 C 96 % 1007,1 hPa 0,0 l/m W-SW 0,00 h 0 W/m 8,2 km/h (2 Bft)
01.12.2017 00:00 -0,6 C 96 % 1006,7 hPa 0,0 l/m W-SW 0,00 h 0 W/m 3,5 km/h (1 Bft)
01.12.2017 01:00 -0,8 C 96 % 1006,7 hPa 0,0 l/m SW 0,00 h 0 W/m 4,6 km/h (1 Bft)
01.12.2017 02:00 -0,6 C 97 % 1006,8 hPa 0,0 l/m S-SW 0,00 h 0 W/m 1,3 km/h (1 Bft)
01.12.2017 03:00 -0,8 C 97 % 1007,0 hPa 0,0 l/m N 0,00 h 0 W/m 0,0 km/h (0 Bft)
01.12.2017 04:00 -1,2 C 97 % 1007,2 hPa 0,0 l/m N 0,00 h 0 W/m 0,0 km/h (0 Bft)
01.12.2017 05:00 -1,1 C 97 % 1007,8 hPa 0,2 l/m W 0,00 h 0 W/m 2,3 km/h (1 Bft)
01.12.2017 06:00 -1,1 C 97 % 1008,6 hPa 0,0 l/m W-SW 0,00 h 0 W/m 4,7 km/h (1 Bft)
01.12.2017 07:00 -1,3 C 97 % 1009,3 hPa 0,0 l/m W-SW 0,00 h 0 W/m 2,4 km/h (1 Bft)
01.12.2017 08:00 -1,5 C 97 % 1010,0 hPa 0,0 l/m SW 0,00 h 14 W/m 6,3 km/h (2 Bft)
01.12.2017 09:00 -1,2 C 97 % 1010,7 hPa 0,0 l/m SW 0,00 h 38 W/m 2,5 km/h (1 Bft)
01.12.2017 10:00 -0,6 C 96 % 1011,3 hPa 0,0 l/m N 0,08 h 108 W/m 0,0 km/h (0 Bft)
01.12.2017 11:00 -0,3 C 92 % 1011,7 hPa 0,0 l/m N 0,00 h 115 W/m 0,4 km/h (0 Bft)
01.12.2017 12:00 0,2 C 90 % 1011,7 hPa 0,0 l/m W-SW 0,75 h 214 W/m 2,4 km/h (1 Bft)
01.12.2017 13:00 0,2 C 89 % 1011,9 hPa 0,0 l/m NO 0,08 h 119 W/m 6,9 km/h (2 Bft)
01.12.2017 14:00 0,5 C 86 % 1012,1 hPa 0,0 l/m O-NO 0,67 h 169 W/m 8,0 km/h (2 Bft)
01.12.2017 15:00 0,1 C 85 % 1012,8 hPa 0,0 l/m NO 0,75 h 76 W/m 7,0 km/h (2 Bft)
01.12.2017 16:00 -0,2 C 84 % 1013,5 hPa 0,0 l/m NO 0,33 h 14 W/m 3,1 km/h (1 Bft)
01.12.2017 17:00 -0,8 C 86 % 1013,9 hPa 0,0 l/m N 0,00 h 0 W/m 2,3 km/h (1 Bft)
01.12.2017 18:00 -1,1 C 90 % 1014,5 hPa 0,0 l/m NO 0,00 h 0 W/m 2,7 km/h (1 Bft)
01.12.2017 19:00 -0,9 C 92 % 1014,9 hPa 0,0 l/m N-NO 0,00 h 0 W/m 7,1 km/h (2 Bft)
01.12.2017 20:00 -0,9 C 93 % 1015,6 hPa 0,0 l/m N-NO 0,00 h 0 W/m 8,5 km/h (2 Bft)
01.12.2017 21:00 -0,6 C 94 % 1016,0 hPa 0,0 l/m O-NO 0,00 h 0 W/m 7,6 km/h (2 Bft)
01.12.2017 22:00 -0,4 C 94 % 1016,5 hPa 0,0 l/m NO 0,00 h 0 W/m 11,3 km/h (2 Bft)
01.12.2017 23:00 -0,5 C 93 % 1016,9 hPa 0,0 l/m NO 0,00 h 0 W/m 10,9 km/h (2 Bft)
02.12.2017 00:00 -0,6 C 93 % 1017,3 hPa 0,0 l/m O-NO 0,00 h 0 W/m 12,6 km/h (3 Bft)
02.12.2017 01:00 -0,8 C 92 % 1017,6 hPa 0,0 l/m O-NO 0,00 h 0 W/m 15,7 km/h (3 Bft)
02.12.2017 02:00 -0,9 C 92 % 1018,1 hPa 0,0 l/m O-NO 0,00 h 0 W/m 15,7 km/h (3 Bft)
02.12.2017 03:00 -0,9 C 92 % 1018,6 hPa 0,0 l/m O-NO 0,00 h 0 W/m 14,5 km/h (3 Bft)
02.12.2017 04:00 -1,0 C 93 % 1019,0 hPa 0,0 l/m O-NO 0,00 h 0 W/m 14,4 km/h (3 Bft)
02.12.2017 05:00 -1,1 C 93 % 1019,3 hPa 0,0 l/m NO 0,00 h 0 W/m 13,7 km/h (3 Bft)
02.12.2017 06:00 -1,2 C 93 % 1020,0 hPa 0,0 l/m NO 0,00 h 0 W/m 12,4 km/h (3 Bft)
02.12.2017 07:00 -1,6 C 93 % 1020,6 hPa 0,0 l/m NO 0,00 h 0 W/m 13,8 km/h (3 Bft)
02.12.2017 08:00 -1,8 C 93 % 1021,3 hPa 0,0 l/m O-NO 0,00 h 12 W/m 17,3 km/h (3 Bft)
02.12.2017 09:00 -1,4 C 91 % 1021,5 hPa 0,0 l/m O-NO 0,25 h 90 W/m 16,8 km/h (3 Bft)
02.12.2017 10:00 -1,0 C 88 % 1021,8 hPa 0,0 l/m O-NO 0,08 h 104 W/m 19,3 km/h (3 Bft)
02.12.2017 11:00 -0,9 C 86 % 1021,8 hPa 0,0 l/m O-NO 0,08 h 138 W/m 18,5 km/h (3 Bft)
02.12.2017 12:00 -0,6 C 84 % 1021,5 hPa 0,0 l/m O-NO 0,25 h 160 W/m 20,8 km/h (4 Bft)
02.12.2017 13:00 -0,1 C 82 % 1021,4 hPa 0,0 l/m O-NO 0,58 h 175 W/m 19,6 km/h (3 Bft)
02.12.2017 14:00 -0,4 C 84 % 1021,6 hPa 0,0 l/m O-NO 0,00 h 36 W/m 14,9 km/h (3 Bft)
02.12.2017 15:00 -0,6 C 85 % 1022,2 hPa 0,0 l/m O 0,00 h 16 W/m 14,8 km/h (3 Bft)
02.12.2017 16:00 -0,9 C 82 % 1022,6 hPa 0,0 l/m O-NO 0,00 h 7 W/m 22,6 km/h (4 Bft)
02.12.2017 17:00 -1,1 C 82 % 1022,7 hPa 0,0 l/m O-NO 0,00 h 0 W/m 19,4 km/h (3 Bft)
02.12.2017 18:00 -1,2 C 83 % 1022,9 hPa 0,0 l/m O-NO 0,00 h 0 W/m 15,3 km/h (3 Bft)
02.12.2017 19:00 -1,3 C 84 % 1023,0 hPa 0,0 l/m O-NO 0,00 h 0 W/m 16,6 km/h (3 Bft)
02.12.2017 20:00 -1,4 C 85 % 1023,2 hPa 0,0 l/m O-NO 0,00 h 0 W/m 14,3 km/h (3 Bft)
02.12.2017 21:00 -1,6 C 85 % 1023,5 hPa 0,0 l/m O-NO 0,00 h 0 W/m 17,3 km/h (3 Bft)
02.12.2017 22:00 -1,7 C 84 % 1023,8 hPa 0,0 l/m O-NO 0,00 h 0 W/m 14,9 km/h (3 Bft)
02.12.2017 23:00 -1,8 C 85 % 1023,8 hPa 0,0 l/m O-NO 0,00 h 0 W/m 12,8 km/h (3 Bft)
03.12.2017 00:00 -1,8 C 85 % 1023,7 hPa 0,0 l/m O 0,00 h 0 W/m 11,0 km/h (2 Bft)
03.12.2017 01:00 -1,8 C 84 % 1023,6 hPa 0,0 l/m O-NO 0,00 h 0 W/m 7,6 km/h (2 Bft)
03.12.2017 02:00 -1,8 C 84 % 1023,6 hPa 0,0 l/m O-NO 0,00 h 0 W/m 9,1 km/h (2 Bft)
03.12.2017 03:00 -1,9 C 83 % 1023,8 hPa 0,0 l/m NO 0,00 h 0 W/m 7,5 km/h (2 Bft)
03.12.2017 04:00 -2,0 C 82 % 1024,1 hPa 0,0 l/m O 0,00 h 0 W/m 7,2 km/h (2 Bft)
03.12.2017 05:00 -2,1 C 83 % 1024,2 hPa 0,0 l/m O-NO 0,00 h 0 W/m 2,8 km/h (1 Bft)
03.12.2017 06:00 -2,1 C 83 % 1024,3 hPa 0,0 l/m N 0,00 h 0 W/m 0,0 km/h (0 Bft)
03.12.2017 07:00 -2,2 C 83 % 1024,8 hPa 0,0 l/m N 0,00 h 0 W/m 0,0 km/h (0 Bft)
03.12.2017 08:00 -2,1 C 84 % 1025,2 hPa 0,0 l/m N 0,00 h 13 W/m 0,0 km/h (0 Bft)
03.12.2017 09:00 -2,0 C 84 % 1025,6 hPa 0,0 l/m SO 0,00 h 38 W/m 1,9 km/h (1 Bft)
03.12.2017 10:00 -1,8 C 79 % 1026,0 hPa 0,0 l/m S-SW 0,00 h 69 W/m 4,9 km/h (1 Bft)
03.12.2017 11:00 -1,4 C 76 % 1025,9 hPa 0,0 l/m W 0,25 h 155 W/m 6,8 km/h (2 Bft)
03.12.2017 12:00 -1,1 C 75 % 1025,7 hPa 0,0 l/m W 0,17 h 164 W/m 9,5 km/h (2 Bft)
03.12.2017 13:00 -0,8 C 74 % 1025,4 hPa 0,0 l/m W-SW 0,92 h 194 W/m 12,0 km/h (2 Bft)
03.12.2017 14:00 -0,7 C 74 % 1025,3 hPa 0,0 l/m W-SW 0,17 h 85 W/m 9,7 km/h (2 Bft)
03.12.2017 15:00 -0,9 C 77 % 1025,3 hPa 0,0 l/m W-SW 0,00 h 32 W/m 7,8 km/h (2 Bft)
03.12.2017 16:00 -1,0 C 78 % 1025,6 hPa 0,0 l/m W-SW 0,00 h 9 W/m 8,7 km/h (2 Bft)
03.12.2017 17:00 -1,2 C 79 % 1025,9 hPa 0,0 l/m W-SW 0,00 h 0 W/m 8,8 km/h (2 Bft)
03.12.2017 18:00 -1,3 C 83 % 1026,3 hPa 0,0 l/m W-SW 0,00 h 0 W/m 8,7 km/h (2 Bft)
03.12.2017 19:00 -1,8 C 88 % 1026,9 hPa 0,0 l/m W-SW 0,00 h 0 W/m 11,0 km/h (2 Bft)
03.12.2017 20:00 -2,1 C 91 % 1027,1 hPa 0,4 l/m SW 0,00 h 0 W/m 13,7 km/h (3 Bft)
03.12.2017 21:00 -2,1 C 92 % 1026,8 hPa 0,0 l/m SW 0,00 h 0 W/m 11,5 km/h (2 Bft)
03.12.2017 22:00 -2,0 C 93 % 1027,0 hPa 0,2 l/m SW 0,00 h 0 W/m 10,9 km/h (2 Bft)
03.12.2017 23:00 -1,9 C 94 % 1027,2 hPa 0,2 l/m SW 0,00 h 0 W/m 15,6 km/h (3 Bft)
Min-Datum _ 03.12.17 27.11.17 29.11.17 - - - - 29.11.17
_ Min-Zeit 07:10 14:50 14:20 - - - - 00:30
Minimum _ -2,2 C 72 % 1004,2 hPa - - - - 0,0 km/h (0 Bft)
Max-Datum _ 27.11.17 01.12.17 27.11.17 28.11.17 - 27.11.17 02.12.17 27.11.17
_ Max-Zeit 13:35 21:35 02:15 11:15 - 11:15 13:00 13:20
Maximum _ 3,7 C 100 % 1027,6 hPa 1,0 l/m - 0,08 h 455 W/m 37,0 km/h
W-SW (5 Bft)
Durchschnitt _ 0,4 C 89 % 1014,6 hPa #5,6 l/m W-SW #9:00 h 83 W/m 11,5 km/h (2 Bft)